This demonstration page uses our WeatherBlox Daily Observations layout. Learn more.

39.01783, -85.05884

Hourly Observations for February 6, 2020

Temp ( °F °C ) Dew Point ( °F °C ) Humidity (%) Winds ( mph kmh ) Pressure ( in mb ) Visibility ( mi km ) Precip ( " mm )
12:52 am 00:52 Cloudy with Mist and Fog 34 1.1 32 0 92 92 ENE 12 19 29.58 1002 2 3.21868 0.001 0.001
1:44 am 01:44 Cloudy with Mist and Fog 34 1.1 33 0.6 97 97 NNE 7 11 29.62 1003 0.5 0.80467 0 0
1:52 am 01:52 Cloudy with Mist and Fog 34 1.1 33 0.6 97 97 NNE 6 9 29.59 1002 0.5 0.80467 0 0
2:52 am 02:52 Cloudy with Drizzle 34 1.1 32 0 92 92 N 10 17 29.59 1002 0.5 0.80467 0.001 0.001
3:52 am 03:52 Cloudy with Mist and Fog 33 0.6 31 -0.6 92 92 N 8 13 29.58 1002 0.5 0.80467 0.001 0.001
4:52 am 04:52 Cloudy with Mist and Fog 33 0.6 31 -0.6 92 92 NNE 10 17 29.53 1000 0.5 0.80467 0 0
5:52 am 05:52 Cloudy with Mist and Fog 33 0.6 31 -0.6 92 92 NNE 8 13 29.54 1000 0.5 0.80467 0 0
6:52 am 06:52 Cloudy with Mist and Fog 32 0 31 -0.6 96 96 NNE 9 15 29.52 1000 0.5 0.80467 0 0
7:52 am 07:52 Cloudy with Mist and Fog 33 0.6 31 -0.6 92 92 NNE 9 15 29.52 1000 0.5 0.80467 0 0
8:52 am 08:52 Cloudy with Light Rain 33 0.6 31 -0.6 92 92 NNW 9 15 29.54 1001 0.5 0.80467 0.001 0.001
9:31 am 09:31 Cloudy with Light Freezing Drizzle 32 0 30 -1.1 92 92 NNW 12 19 29.6 1002 0.5 0.80467 0.001 0.001
9:42 am 09:42 Cloudy with Mist and Fog 32 0 30 -1.1 92 92 NW 13 20 29.62 1003 0.5 0.80467 0.001 0.001
9:52 am 09:52 Cloudy with Mist and Fog 32 0 30 -1.1 92 92 NW 14 22 29.6 1003 0.5 0.80467 0.001 0.001
10:07 am 10:07 Cloudy with Light Freezing Rain 32 0 30 -1.1 92 92 NNW 12 19 29.61 1003 0.5 0.80467 0.001 0.001
10:14 am 10:14 Cloudy with Light Freezing Rain 32 0 30 -1.1 92 92 N 7 11 29.59 1002 0.5 0.80467 0.001 0.001
10:25 am 10:25 Cloudy with Mist and Fog 32 0 30 -1.1 92 92 N 10 17 29.58 1002 0.5 0.80467 0.001 0.001
10:46 am 10:46 Cloudy 34 1 30 -1 87 87 N 9 15 29.56 1001 8 12.87472 0.001 0.001
10:52 am 10:52 Cloudy 33 0.6 30 -1.1 89 89 N 10 17 29.53 1000 8 12.87472 0.001 0.001
11:52 am 11:52 Cloudy 33 0.6 30 -1.1 89 89 NE 12 19 29.47 998 10 16.0934 0 0
12:52 pm 12:52 Cloudy 34 1.1 30 -1.1 85 85 NNE 6 9 29.45 997 7 11.26538 0 0
1:52 pm 13:52 Cloudy with Mist and Fog 33 0.6 30 -1.1 89 89 NW 10 17 29.45 997 6 9.65604 0 0
2:00 pm 14:00 Cloudy with Mist and Fog 33 0.6 31 -0.6 92 92 NNW 9 15 29.48 998 4 6.43736 0 0
2:07 pm 14:07 Cloudy with Mist and Fog 33 0.6 31 -0.6 92 92 NW 9 15 29.47 998 0.75 1.207005 0 0
2:52 pm 14:52 Cloudy with Mist and Fog 32 0 30 -1.1 92 92 NNW 12 19 29.43 997 1 1.60934 0 0
3:28 pm 15:28 Cloudy with Mist and Fog 32 0 30 -1.1 92 92 NW 13 20 29.5 999 1 1.60934 0 0
3:52 pm 15:52 Cloudy with Mist and Fog 32 0 30 -1.1 92 92 NW 12 19 29.46 998 1 1.60934 0 0
4:10 pm 16:10 Cloudy with Drizzle 32 0 29 -1.7 88 88 NW 13 20 29.51 999 2 3.21868 0.001 0.001
4:23 pm 16:23 Cloudy with Mist and Fog 32 0 29 -1.7 88 88 NW 12 19 29.51 999 2 3.21868 0.001 0.001
4:46 pm 16:46 Cloudy with Drizzle 32 0 28 -2 87 87 NNW 10 17 29.5 999 2 3.21868 0.001 0.001
4:49 pm 16:49 Cloudy with Drizzle 32 0 28 -2 87 87 NW 12 19 29.5 999 3 4.82802 0.001 0.001
4:52 pm 16:52 Cloudy with Drizzle 32 0 29 -1.7 88 88 NW 9 15 29.46 998 3 4.82802 0.001 0.001
5:37 pm 17:37 Cloudy with Drizzle 32 0 29 -1.7 88 88 NNW 12 19 29.49 998 3 4.82802 0.001 0.001
5:52 pm 17:52 Cloudy with Drizzle 32 0 29 -1.7 88 88 NNW 10 17 29.47 998 5 8.0467 0.001 0.001
6:52 pm 18:52 Cloudy with Light Snow 31 -0.6 28 -2.2 89 89 NNW 7 11 29.48 998 6 9.65604 0.001 0.001
6:55 pm 18:55 Cloudy with Light Snow 31 -0.6 28 -2.2 89 89 N 9 15 29.52 1000 6 9.65604 0.001 0.001
7:52 pm 19:52 Cloudy with Mist and Fog 31 -0.6 28 -2.2 89 89 NNW 7 11 29.47 998 5 8.0467 0.001 0.001
8:52 pm 20:52 Cloudy 30 -1.1 26 -3.3 85 85 NNW 12 19 29.49 999 7 11.26538 0 0
9:52 pm 21:52 Cloudy with Light Snow 30 -1.1 26 -3.3 85 85 N 8 13 29.46 998 4 6.43736 0.001 0.001
9:57 pm 21:57 Cloudy with Light Snow 30 -1.1 26 -3.3 85 85 NNW 9 15 29.49 999 4 6.43736 0.001 0.001
10:39 pm 22:39 Cloudy with Light Snow 29 -1.7 26 -3.3 89 89 NNW 10 17 29.5 999 5 8.0467 0.001 0.001
10:52 pm 22:52 Cloudy with Light Snow 29 -1.7 26 -3.3 89 89 NNW 9 15 29.46 998 5 8.0467 0.001 0.001
11:52 pm 23:52 Cloudy with Light Snow 29 -1.7 26 -3.3 89 89 NW 7 11 29.46 998 5 8.0467 0.001 0.001

Powered by AerisWeather